Weather History for Vernal, UT

Change the Weather History Date:

Sunday, August 18, 2013

  Actual Average Record
Temperature  
Mean Temperature 74 °F 70 °F  
Max Temperature 91 °F 85 °F 98 °F (1986)
Min Temperature 56 °F 55 °F 38 °F (1928)
Degree Days  
Heating Degree Days 0 0  
Month to date heating degree days 0 0  
Since 1 June heating degree days 15 78  
Since 1 July heating degree days 0 6  
Cooling Degree Days 9 5  
Month to date cooling degree days 122 122  
Year to date cooling degree days 635 440  
Since 1 June cooling degree days 627 431  
Growing Degree Days 23 (Base 50)    
Moisture  
Dew Point 44 °F    
Average Humidity 39    
Maximum Humidity 60    
Minimum Humidity 18    
Precipitation  
Precipitation 0.00 in 0.03 in 0.28 in (1989)
Month to date precipitation 0.15 0.41  
Year to date precipitation 4.53 5.26  
Sea Level Pressure  
Sea Level Pressure 29.97 in    
Wind  
Wind Speed 4 mph (WNW)    
Max Wind Speed 10 mph    
Max Gust Speed 16 mph    
Visibility 10 miles    
Events      
T = Trace of Precipitation, MM = Missing Value Source: NWS Daily Summary

Daily Weather History Graph

Daily Weather History Graph

Search for Another Location

Airport:

Trip Planner

Search our weather history database for the weather conditions in past years. The results will help you decide how hot, cold, wet, or windy it might be!

Date:

Astronomy

Aug. 18, 2013 Rise Set
Actual Time 6:32 AM MDT 8:10 PM MDT
Civil Twilight 6:03 AM MDT 8:39 PM MDT
Nautical Twilight 5:28 AM MDT 9:14 PM MDT
Astronomical Twilight 4:50 AM MDT 9:51 PM MDT
Moon 6:19 PM MDT (8/18) 3:45 AM MDT (8/18)
Length of Visible Light 14h 36m
Length of Day
13h 38m
Waxing Gibbous, 92% of the Moon is Illuminated
Aug 18
Waxing Gibbous
Aug 20
Full
Aug 28
Last Quarter
Sep 5
New
Sep 12
First Quarter

Hourly Weather History & Observations

Time (MDT) Temp. Dew Point Humidity Pressure Visibility Wind Dir Wind Speed Gust Speed Precip Events Conditions
12:53 AM 66.9 °F 45.0 °F 45% 29.95 in 10.0 mi North 4.6 mph - N/A   Clear
1:53 AM 63.0 °F 46.9 °F 56% 29.96 in 10.0 mi NW 4.6 mph - N/A   Clear
2:53 AM 60.1 °F 46.0 °F 60% 29.96 in 10.0 mi WNW 4.6 mph - N/A   Clear
3:53 AM 59.0 °F 44.1 °F 58% 29.98 in 10.0 mi West 4.6 mph - N/A   Clear
4:53 AM 57.9 °F 43.0 °F 58% 29.99 in 10.0 mi WNW 5.8 mph - N/A   Clear
5:53 AM 57.9 °F 42.1 °F 56% 30.01 in 10.0 mi NW 3.5 mph - N/A   Clear
6:53 AM 57.0 °F 42.1 °F 57% 30.03 in 10.0 mi West 3.5 mph - N/A   Clear
7:53 AM 63.0 °F 44.1 °F 50% 30.04 in 10.0 mi Calm Calm - N/A   Clear
8:53 AM 70.0 °F 44.1 °F 39% 30.05 in 10.0 mi East 3.5 mph - N/A   Clear
9:53 AM 72.0 °F 45.0 °F 38% 30.04 in 10.0 mi SSE 4.6 mph - N/A   Clear
10:53 AM 75.0 °F 45.0 °F 34% 30.05 in 10.0 mi Calm Calm - N/A   Clear
11:53 AM 80.1 °F 46.0 °F 30% 30.03 in 10.0 mi Calm Calm - N/A   Clear
12:53 PM 82.0 °F 46.0 °F 28% 30.00 in 10.0 mi Calm Calm - N/A   Clear
1:53 PM 86.0 °F 43.0 °F 22% 29.97 in 10.0 mi East 5.8 mph - N/A   Clear
2:53 PM 87.1 °F 39.9 °F 19% 29.95 in 10.0 mi Calm Calm - N/A   Clear
3:53 PM 89.1 °F 42.1 °F 19% 29.92 in 10.0 mi South 3.5 mph - N/A   Clear
4:53 PM 89.1 °F 43.0 °F 20% 29.90 in 10.0 mi South 5.8 mph - N/A   Clear
5:53 PM 88.0 °F 43.0 °F 21% 29.90 in 10.0 mi Calm Calm - N/A   Clear
6:53 PM 84.0 °F 45.0 °F 25% 29.89 in 10.0 mi WSW 6.9 mph - N/A   Clear
7:53 PM 81.0 °F 44.1 °F 27% 29.89 in 10.0 mi West 4.6 mph - N/A   Clear
8:53 PM 73.9 °F 46.0 °F 37% 29.91 in 10.0 mi WNW 5.8 mph - N/A   Clear
9:53 PM 73.9 °F 45.0 °F 35% 29.92 in 10.0 mi WNW 5.8 mph - N/A   Clear
10:53 PM 71.1 °F 45.0 °F 39% 29.93 in 10.0 mi Calm Calm - N/A   Clear
11:53 PM 68.0 °F 46.0 °F 45% 29.93 in 10.0 mi WNW 6.9 mph - N/A   Clear